Volkel, Netherlands

8:32 AM CEST on August 21, 2017 (GMT +0200)
Volkel Air Base

Weather History for EHVK - October, 2013

Change the Weather History Date:

Saturday, October 26, 2013

  Actual Average Record
Temperature  
Mean Temperature 64 °F -  
Max Temperature 68 °F 48 °F 73 °F (2006)
Min Temperature 59 °F 36 °F 30 °F (2010)
Degree Days  
Heating Degree Days 2    
Growing Degree Days 14 (Base 50)    
Moisture  
Dew Point 58 °F    
Average Humidity 87    
Maximum Humidity 100    
Minimum Humidity 64    
Precipitation  
Precipitation 0.00 in - - ()
Sea Level Pressure  
Sea Level Pressure 29.81 in    
Wind  
Wind Speed 10 mph ()    
Max Wind Speed 18 mph    
Max Gust Speed -    
Visibility 6.2 miles    
Events      
Averages and records for this station are not official NWS values.
T = Trace of Precipitation, MM = Missing Value Source: Averaged Metar Reports

Daily Weather History Graph

Daily Weather History Graph

Search for Another Location

Airport or City:

Trip Planner

Search our weather history database for the weather conditions in past years. The results will help you decide how hot, cold, wet, or windy it might be!

Date:

Astronomy

Oct. 26, 2013 Rise Set
Actual Time 8:20 AM CEST 6:20 PM CEST
Civil Twilight 7:45 AM CEST 6:55 PM CEST
Nautical Twilight 7:06 AM CEST 7:34 PM CEST
Astronomical Twilight 6:27 AM CEST 8:13 PM CEST
Moon No Moon Rise 2:35 PM CEST (10/26)
Length of Visible Light 11h 09m
Length of Day
10h 00m
Waning Gibbous, 55% of the Moon is Illuminated
Oct 26
Waning Gibbous
Oct 27
Last Quarter
Nov 3
New
Nov 10
First Quarter
Nov 17
Full

Hourly Weather History & Observations

Time (CEST) Temp. Dew Point Humidity Pressure Visibility Wind Dir Wind Speed Gust Speed Precip Events Conditions
12:25 AM 60.8 °F 59.0 °F 94% 29.83 in 6.2 mi South 10.4 mph - N/A   Mostly Cloudy
12:55 AM 60.8 °F 59.0 °F 94% 29.83 in 6.2 mi SSW 9.2 mph - N/A   Overcast
1:25 AM 60.8 °F 59.0 °F 94% 29.83 in 6.2 mi SSW 9.2 mph - N/A   Overcast
1:55 AM 60.8 °F 59.0 °F 94% 29.83 in 6.2 mi SSW 9.2 mph - N/A   Overcast
2:25 AM 60.8 °F 59.0 °F 94% 29.83 in 6.2 mi SSW 8.1 mph - N/A   Overcast
2:55 AM 60.8 °F 59.0 °F 94% 29.83 in 6.2 mi SSW 6.9 mph - N/A   Mostly Cloudy
3:25 AM 59.0 °F 59.0 °F 100% 29.83 in 6.2 mi SSW 8.1 mph - N/A   Overcast
3:55 AM 59.0 °F 59.0 °F 100% 29.83 in 6.2 mi SSW 8.1 mph - N/A   Overcast
4:25 AM 59.0 °F 59.0 °F 100% 29.83 in 6.2 mi South 6.9 mph - N/A   Overcast
4:31 AM 59.0 °F 57.2 °F 94% 29.83 in 6.2 mi SSW 6.9 mph - N/A   Overcast
4:38 AM 59.0 °F 57.2 °F 94% 29.83 in 6.2 mi SSW 6.9 mph - N/A   Mostly Cloudy
4:50 AM 59.0 °F 59.0 °F 100% 29.83 in 6.2 mi South 8.1 mph - N/A   Mostly Cloudy
4:55 AM 59.0 °F 59.0 °F 100% 29.83 in 6.2 mi South 9.2 mph - N/A   Overcast
4:59 AM 59.0 °F 59.0 °F 100% 29.83 in 6.2 mi South 9.2 mph - N/A   Overcast
5:03 AM 59.0 °F 59.0 °F 100% 29.83 in 6.2 mi South 9.2 mph - N/A   Overcast
5:07 AM 59.0 °F 59.0 °F 100% 29.83 in 6.2 mi South 9.2 mph - N/A   Mostly Cloudy
5:13 AM 59.0 °F 59.0 °F 100% 29.83 in 6.2 mi South 9.2 mph - N/A   Mostly Cloudy
5:20 AM 59.0 °F 59.0 °F 100% 29.83 in 6.2 mi South 9.2 mph - N/A   Mostly Cloudy
5:25 AM 59.0 °F 59.0 °F 100% 29.83 in 6.2 mi SSW 9.2 mph - N/A   Overcast
5:27 AM 59.0 °F 59.0 °F 100% 29.83 in 6.2 mi SSW 9.2 mph - N/A   Overcast
5:41 AM 59.0 °F 57.2 °F 94% 29.83 in 6.2 mi South 9.2 mph - N/A   Mostly Cloudy
5:55 AM 59.0 °F 59.0 °F 100% 29.83 in 6.2 mi South 9.2 mph - N/A   Overcast
6:25 AM 59.0 °F 57.2 °F 94% 29.83 in 6.2 mi South 10.4 mph - N/A   Mostly Cloudy
6:55 AM 59.0 °F 57.2 °F 94% 29.83 in 6.2 mi SSW 9.2 mph - N/A   Mostly Cloudy
7:25 AM 59.0 °F 57.2 °F 94% 29.83 in 6.2 mi SSW 9.2 mph - N/A   Overcast
7:55 AM 59.0 °F 57.2 °F 94% 29.83 in 6.2 mi SSW 10.4 mph - N/A   Overcast
8:25 AM 59.0 °F 57.2 °F 94% 29.83 in 6.2 mi SSW 11.5 mph - N/A   Mostly Cloudy
8:55 AM 59.0 °F 57.2 °F 94% 29.83 in 6.2 mi SSW 12.7 mph - N/A   Mostly Cloudy
8:58 AM 60.8 °F 57.2 °F 88% 29.83 in 6.2 mi SSW 12.7 mph - N/A   Mostly Cloudy
9:07 AM 60.8 °F 57.2 °F 88% 29.83 in 6.2 mi SSW 11.5 mph - N/A   Mostly Cloudy
9:11 AM 60.8 °F 57.2 °F 88% 29.83 in 6.2 mi SSW 11.5 mph - N/A   Mostly Cloudy
9:21 AM 60.8 °F 57.2 °F 88% 29.83 in 6.2 mi SSW 12.7 mph - N/A   Mostly Cloudy
9:25 AM 60.8 °F 57.2 °F 88% 29.83 in 6.2 mi SSW 11.5 mph - N/A   Mostly Cloudy
9:55 AM 60.8 °F 59.0 °F 94% 29.83 in 6.2 mi SSW 11.5 mph - N/A   Overcast
10:25 AM 62.6 °F 59.0 °F 88% 29.83 in 6.2 mi SSW 11.5 mph - N/A   Mostly Cloudy
10:55 AM 62.6 °F 59.0 °F 88% 29.83 in 6.2 mi SSW 12.7 mph - N/A   Scattered Clouds
10:59 AM 62.6 °F 59.0 °F 88% 29.83 in 6.2 mi SSW 12.7 mph - N/A   Mostly Cloudy
11:15 AM 62.6 °F 59.0 °F 88% 29.83 in 6.2 mi SSW 15.0 mph - N/A   Mostly Cloudy
11:16 AM 62.6 °F 59.0 °F 88% 29.83 in 6.2 mi SSW 15.0 mph - N/A   Overcast
11:25 AM 62.6 °F 59.0 °F 88% 29.83 in 6.2 mi SSW 15.0 mph - N/A   Overcast
11:29 AM 62.6 °F 59.0 °F 88% 29.83 in 6.2 mi SSW 13.8 mph - N/A   Overcast
11:55 AM 64.4 °F 59.0 °F 83% 29.83 in 6.2 mi SSW 15.0 mph - N/A   Mostly Cloudy
12:02 PM 64.4 °F 59.0 °F 83% 29.83 in 6.2 mi SSW 16.1 mph - N/A   Partly Cloudy
12:06 PM 64.4 °F 57.2 °F 77% 29.83 in 6.2 mi SSW 15.0 mph - N/A   Scattered Clouds
12:07 PM 64.4 °F 57.2 °F 77% 29.83 in 6.2 mi SSW 15.0 mph - N/A   Mostly Cloudy
12:25 PM 66.2 °F 59.0 °F 78% 29.83 in 6.2 mi SW 17.3 mph - N/A   Mostly Cloudy
12:38 PM 66.2 °F 59.0 °F 78% 29.83 in 6.2 mi SSW 16.1 mph - N/A   Overcast
12:55 PM 64.4 °F 57.2 °F 77% 29.83 in 6.2 mi SW 17.3 mph - N/A   Overcast
1:25 PM 64.4 °F 57.2 °F 77% 29.83 in 6.2 mi SSW 17.3 mph - N/A   Overcast
1:55 PM 68.0 °F 57.2 °F 68% 29.80 in 6.2 mi SSW 13.8 mph - N/A   Mostly Cloudy
2:25 PM 66.2 °F 55.4 °F 68% 29.80 in 6.2 mi SSW 18.4 mph - N/A   Mostly Cloudy
2:55 PM 68.0 °F 57.2 °F 68% 29.80 in 6.2 mi SSW 16.1 mph - N/A   Overcast
3:25 PM 68.0 °F 55.4 °F 64% 29.80 in 6.2 mi SSW 16.1 mph - N/A   Unknown
3:55 PM 66.2 °F 57.2 °F 73% 29.80 in 6.2 mi SSW 10.4 mph - N/A   Overcast
4:25 PM 66.2 °F 55.4 °F 68% 29.77 in 6.2 mi SSW 15.0 mph - N/A   Overcast
4:55 PM 66.2 °F 55.4 °F 68% 29.77 in 6.2 mi SSW 13.8 mph - N/A   Overcast
5:25 PM 66.2 °F 55.4 °F 68% 29.77 in 6.2 mi SW 12.7 mph - N/A   Overcast
5:55 PM 64.4 °F 55.4 °F 73% 29.77 in 6.2 mi SSW 9.2 mph - N/A   Unknown
6:25 PM 64.4 °F 55.4 °F 73% 29.77 in 6.2 mi South 11.5 mph - N/A   Unknown
6:55 PM 62.6 °F 55.4 °F 77% 29.77 in 6.2 mi SSW 10.4 mph - N/A   Unknown
7:25 PM 62.6 °F 57.2 °F 82% 29.77 in 6.2 mi SSW 10.4 mph - N/A   Unknown
7:55 PM 62.6 °F 57.2 °F 82% 29.80 in 6.2 mi SSW 10.4 mph - N/A   Unknown
8:25 PM 60.8 °F 57.2 °F 88% 29.77 in 6.2 mi SSW 9.2 mph - N/A   Unknown
8:55 PM 60.8 °F 55.4 °F 82% 29.77 in 6.2 mi SSW 8.1 mph - N/A   Unknown
9:25 PM 60.8 °F 55.4 °F 82% 29.77 in 6.2 mi South 9.2 mph - N/A   Unknown
9:55 PM 60.8 °F 57.2 °F 88% 29.77 in 6.2 mi South 10.4 mph - N/A   Unknown
10:25 PM 60.8 °F 57.2 °F 88% 29.77 in 6.2 mi SSW 11.5 mph - N/A   Unknown
10:55 PM 60.8 °F 57.2 °F 88% 29.74 in 6.2 mi South 10.4 mph - N/A   Unknown
11:25 PM 59.0 °F 55.4 °F 88% 29.74 in 6.2 mi South 9.2 mph - N/A   Unknown
11:55 PM 59.0 °F 55.4 °F 88% 29.74 in 6.2 mi SSW 8.1 mph - N/A   Unknown